Location: Campo Alegre
(10.4289°N, 66.6519°W)
Time: 00:11:24
(UTC+00:00)

CZ-4B R/B - Pass Details

Date: 29 May 2024
Orbit: 702 x 799 km, 98.9° (Epoch: 21 June)

Event Time Altitude Azimuth Distance (km) Brightness Sun altitude
Exits shadow 23:18:08 - 157° (SSE) 2,974 6.1 -8.4°
Reaches altitude 10° 23:20:09 10° 153° (SSE) 2,166 5.4 -8.8°
Maximum altitude 23:24:46 54° 76° (ENE) 862 3.5 -9.9°
Drops below altitude 10° 23:29:27 10° 360° (N) 2,201 6.2 -10.9°
Sets 23:31:47 0° 355° (N) 3,135 7.1 -11.4°
